Location: L’Hospitalet
(42.5891°N, 1.7993°E)
Time: 15:22:33
(UTC+00:00)

Daily predictions for brighter satellites

Satellite Brightness Start Highest point End
(mag) Time Altitude Azimuth Time Altitude Azimuth Time Altitude Azimuth
Cosmos 2061 Rocket 4.4 16:52:06 10° SSE 16:57:58 42° E 17:03:47 10° NNE
Cosmos 1864 Rocket 4.5 16:52:20 10° S 16:58:25 76° E 17:04:37 10° N
COSMO-SKYMED 1 4.3 17:01:53 10° ENE 17:03:34 12° E 17:05:16 10° ESE
Cosmos 1674 Rocket 4.2 16:59:28 10° NNW 17:03:47 61° W 17:08:01 10° S
Cosmos 1025 Rocket 3.1 16:59:43 10° N 17:04:03 86° W 17:08:20 10° S
Cosmos 2221 Rocket 3.6 17:00:23 10° N 17:04:54 86° E 17:09:20 10° S
Cosmos 1140 Rocket 4.0 17:00:19 10° S 17:05:07 40° ESE 17:09:56 10° NE
DNEPR-1 R/B 4.2 17:01:26 10° NNW 17:05:41 42° NE 17:10:34 10° ESE
Landsat 7 4.1 17:01:45 10° SE 17:06:09 44° ENE 17:10:35 10° N
Helios 1A Rocket 4.5 17:05:24 10° ENE 17:06:19 11° E 17:07:13 10° ESE
Tiangong -0.6 17:05:38 10° W 17:08:33 34° SSW 17:11:29 10° SE
ATLAS CENTAUR R/B 2.5 17:05:55 10° WSW 17:09:03 31° NW 17:12:13 10° NNE
Cosmos 2082 Rocket 3.9 17:07:10 10° NNE 17:09:28 12° NE 17:11:46 10° ENE
Cosmos 1725 Rocket 4.0 17:05:20 10° S 17:11:35 86° E 17:17:55 10° N
MOS 1 Rocket 3.9 17:08:07 10° SE 17:11:45 28° ENE 17:15:29 10° N
SWARM A 4.1 17:08:43 10° N 17:12:03 83° E 17:15:21 10° S
Cosmos 2278 Rocket 3.5 17:08:19 10° SE 17:12:22 20° E 17:16:24 10° NE
Meteor 1-28 Rocket 4.4 17:09:41 10° N 17:12:52 39° WNW 17:16:02 10° SW
ISS -1.9 17:10:57 10° S 17:13:15 18° SE 17:15:30 10° E
CORIOLIS 4.1 17:08:31 10° SSE 17:13:53 81° ENE 17:19:15 10° NNW
Cosmos 2233 Rocket 4.0 17:09:33 10° S 17:15:44 64° E 17:21:59 10° NNE
CZ-2D R/B 2.8 17:13:08 10° SSE 17:16:13 52° ENE 17:19:19 10° N
SAR-Lupe-3 3.8 17:14:25 10° NNE 17:17:03 57° ESE 17:19:39 10° S
YAOGAN 1 3.9 17:15:02 10° ESE 17:17:51 17° ENE 17:20:39 10° NNE
NOSS 3-4 (A) 4.2 17:11:49 10° NW 17:18:48 75° WSW 17:26:58 10° SSE
NOSS 3-4 (C) 4.2 17:11:53 10° NW 17:18:52 76° WSW 17:27:01 10° SSE
Cosmos 1943 Rocket 3.2 17:18:03 10° SSE 17:22:36 26° ESE 17:27:10 10° NE
ARIANE 5 R/B 2.4 17:23:35 10° SSE 17:28:34 86° ENE 17:33:34 10° NNW
SL-12 R/B(2) 4.4 17:23:56 10° S 17:31:17 51° ESE 17:40:04 10° NE
IRS-1C 4.2 17:28:13 10° SSE 17:33:33 87° W 17:38:54 10° NNW
AQUARIUS 4.0 17:29:26 10° SSE 17:33:48 69° ENE 17:38:11 10° N
BREEZE-M DEB (TANK) 2.5 17:34:16 10° SW 17:36:34 69° SE 17:40:01 17° ENE
PSLV R/B 4.4 17:34:01 10° ESE 17:37:20 25° ENE 17:40:39 10° NNE
Cosmos 1869 3.5 17:35:43 10° SSE 17:39:01 38° E 17:42:19 10° NNE
TIMED 4.4 17:35:45 10° S 17:39:55 61° ESE 17:44:09 10° NNE
SPOT 1/Viking Rocket 3.7 17:41:35 10° SE 17:46:33 50° ENE 17:51:33 10° N
SL-16 R/B 4.3 17:42:50 10° N 17:48:13 31° WNW 17:53:34 10° WSW
Cosmos 1782 Rocket 4.1 17:45:18 10° SSW 17:49:40 60° W 17:54:04 10° N
Tsikada Rocket 4.2 17:43:55 10° N 17:50:21 78° W 17:56:41 10° S
CZ-2D R/B 3.5 17:48:32 10° SSE 17:52:30 52° ENE 17:56:33 10° N
RESURS DK-1 3.4 17:50:53 10° N 17:53:59 24° NE 17:53:59 24° NE
Cosmos 1833 Rocket 2.8 17:51:07 10° NNW 17:56:47 81° WSW 18:02:24 10° SSE
SL-19 R/B 4.2 17:56:39 10° SE 18:01:44 52° ENE 18:06:46 10° N
USA 215 4.3 17:55:37 10° SSE 18:01:51 47° SW 18:08:07 10° WNW
Cosmos 2151 Rocket 4.2 17:58:28 10° SSE 18:02:25 32° E 18:02:47 32° E
Cosmos 407 Rocket 3.4 17:58:00 10° S 18:03:10 69° ESE 18:07:51 13° NNE
SL-4 R/B 3.1 18:02:19 10° WNW 18:05:33 36° SW 18:08:49 11° SSE
CZ-4C R/B 4.2 18:02:30 10° WNW 18:05:34 17° NNW 18:09:06 10° NNE
Cosmos 1975 Rocket 3.6 18:07:22 10° NNW 18:11:39 61° W 18:15:56 10° S
Spot 4 Rocket 3.9 18:06:52 10° SSE 18:11:56 74° ENE 18:17:02 10° N
Cosmos 1513 Rocket 4.4 18:06:44 10° S 18:13:00 75° E 18:19:24 10° N
SKYMED 2 3.7 18:10:58 10° N 18:15:20 75° WNW 18:19:39 10° SSW
OAO 2 Rocket 4.4 18:11:25 10° SW 18:15:56 33° S 18:17:46 25° SE
Cosmos 2058 3.5 18:15:44 10° N 18:18:24 37° NNE 18:18:24 37° NNE
Cosmos 44 Rocket 3.2 18:21:24 10° SSW 18:26:02 62° ESE 18:26:51 53° ENE
IRAS Rocket 4.2 18:20:53 10° SSE 18:26:28 84° WSW 18:32:03 10° NNW
Aureole 3 Rocket 2.7 18:25:35 10° SSW 18:28:45 59° W 18:28:57 57° WNW
Timation 1 Rocket 4.2 18:23:50 10° NNW 18:29:48 69° ENE 18:33:07 27° SE
ATLAS 5 CENTAUR R/B 2.2 18:27:39 10° NW 18:32:13 66° WSW 18:37:30 12° SSE
Nadezhda 4 Rocket 3.9 18:25:58 10° N 18:32:13 62° E 18:38:22 10° SSE
Timation 2 Rocket 4.3 18:28:07 10° SSW 18:34:58 79° WNW 18:40:54 15° NNE
NOAA 6 3.9 18:31:00 10° SSE 18:36:09 79° ENE 18:41:18 10° N
Helios 1A Rocket 3.6 18:38:07 31° NNW 18:39:11 41° WNW 18:42:23 10° SW
COSMO-SKYMED 1 3.0 18:36:02 16° N 18:39:14 56° WNW 18:43:15 10° SSW
Cosmos 1763 Rocket 3.7 18:37:54 10° NNW 18:43:06 70° WSW 18:48:11 10° S
Cosmos 1812 4.3 18:42:02 10° SSW 18:43:26 22° SW 18:43:26 22° SW
Cosmos 2251 Rocket 3.4 18:40:21 10° SSW 18:45:36 89° SE 18:47:05 49° NNE
Cosmos 540 Rocket 3.6 18:44:32 10° NNW 18:49:40 72° WSW 18:52:37 25° S
ISS -2.0 18:46:25 10° WSW 18:48:27 33° W 18:48:27 33° W
USA 281 3.3 18:50:12 52° ENE 18:50:19 52° ENE 18:56:40 10° NNW
YAOGAN 1 3.6 18:49:17 10° S 18:53:20 44° W 18:57:26 10° NNW
Cosmos 2082 Rocket 2.2 18:49:04 10° NNW 18:54:01 61° NNE 18:54:01 61° NNE
Resurs 01 Rocket 4.0 18:58:47 14° N 18:58:47 14° N 18:59:24 10° N
Cosmos 1428 Rocket 4.3 18:49:14 10° N 18:55:31 77° E 19:01:48 10° SSE
Cosmos 2278 Rocket 2.7 18:50:21 10° SW 18:55:55 58° WNW 18:58:50 28° N
Okean 2 Rocket 4.4 18:53:57 10° S 18:56:11 30° SSW 18:56:11 30° SSW
Geosat 4.3 18:58:41 43° S 19:00:13 65° WSW 19:05:13 10° NNW
Cosmos 1943 Rocket 3.1 19:00:39 10° SW 19:06:02 46° WNW 19:08:46 27° N
SJ 16-02 3.5 19:14:47 10° SSW 19:16:01 18° SW 19:16:01 18° SW
Cosmos 2034 Rocket 4.1 19:15:12 10° SSW 19:21:21 71° W 19:27:36 10° N
Cosmos 2344 4.0 19:17:29 10° NNW 19:25:12 56° NE 19:25:12 56° NE
BREEZE-M DEB (TANK) 4.3 19:15:31 10° WNW 19:31:19 85° WNW 19:31:19 85° WNW
ATLAS 2AS CENTAUR R/B 4.2 19:28:57 10° NNW 19:32:07 23° N 19:32:07 23° N
